iSat

operational
NORAD ID: 43879 Int'l Des: 2018-111 Owner: ISKY Country: CZ
LEOCIRCULARRETROGRADE

About iSat

Description loading...

Live Position

Loading 3D Globe...

Upcoming Passes

Altitude History

Altitude vs Time

uPlot chart will show altitude changes over time

Two-Line Element Set

1 43879U 18111D 26063.30339796 .00085482 00000-0 14949-2 0 9996
2 43879 97.5907 351.7630 0004179 0.2145 359.9107 15.50331106394845
Epoch: Mar 4, 2026 • Age: 19 hours

Current Status

Altitude 441.4 km
Velocity 7.65 km/s
Sub-Earth Point -65.04°S, 65.44°E
Launch Date Dec 27, 2018
Age 7.1 years
Type other

Technical Details

Classification Payload
Mass 3.00 kg
Dry Mass 3.00 kg
Total Mass 3.00 kg
Length 0.30 m
Diameter 0.10 m
Span 1.00 m
Shape Box + Ant
Manufacturer GOS
Bus Type Cubesat 3U
Phase Status In Orbit
Owner/State ISKY/CZ

Large Constellations

Loading constellations...